Location: Cudham
(51.3000°N, 0.0667°E)
Time: 16:50:40
(UTC+00:00)

USA 229 DEB - Pass Details

Date: 24 April 2026
Orbit: 844 x 1364 km, 63.4° (Epoch: 10 January)

Event Time Altitude Azimuth Distance (km) Brightness Sun altitude
Rises 19:44:30 0° 293° (WNW) 3,719 9.2 -5.6°
Reaches altitude 10° 19:47:19 10° 304° (NW) 2,846 7.8 -5.9°
Maximum altitude 19:53:17 31° 6° (N) 1,860 5.3 -6.7°
Drops below altitude 10° 19:59:55 10° 66° (ENE) 3,184 5.9 -7.6°
Sets 20:03:16 0° 77° (ENE) 4,226 6.4 -8.1°
